Weather History for KMRJ - May, 2013

Change the Weather History Date:

Tuesday, May 7, 2013

  Actual Average (KLNR) Record (KLNR)
Temperature  
Mean Temperature 66 °F -  
Max Temperature 78 °F 65 °F 82 °F (2000)
Min Temperature 53 °F 44 °F 37 °F (2006)
Growing Degree Days 16 (Base 50)    
Moisture  
Dew Point 34 °F    
Average Humidity 32    
Maximum Humidity 67    
Minimum Humidity 13    
Precipitation  
Precipitation 0.00 in - - ()
Sea Level Pressure  
Sea Level Pressure 30.03 in    
Wind  
Wind Speed 2 mph (East)    
Max Wind Speed 9 mph    
Max Gust Speed -    
Visibility 10 miles    
Events      
Averages and records for this station are not official NWS values.
T = Trace of Precipitation, MM = Missing Value Source: NWS Daily Summary

Daily Weather History Graph

Daily Weather History Graph

Search for Another Location

Airport or City:

Trip Planner

Search our weather history database for the weather conditions in past years. The results will help you decide how hot, cold, wet, or windy it might be!

Date:

Astronomy

May. 07, 2013 Rise Set
Actual Time 5:46 AM CDT 8:08 PM CDT
Civil Twilight 5:15 AM CDT 8:40 PM CDT
Nautical Twilight 4:35 AM CDT 9:19 PM CDT
Astronomical Twilight 3:52 AM CDT 10:04 PM CDT
Moon 4:24 AM CDT (5/7) 6:06 PM CDT (5/7)
Length of Visible Light 15h 25m
Length of Day
14h 21m
Waning Crescent, 5% of the Moon is Illuminated
May 7
Waning Crescent
May 9
New
May 17
First Quarter
May 24
Full
May 31
Last Quarter

Hourly Weather History & Observations

Time (CDT) Temp. Dew Point Humidity Pressure Visibility Wind Dir Wind Speed Gust Speed Precip Events Conditions
12:15 AM 60.8 °F 37.4 °F 42% 30.03 in 10.0 mi Calm Calm - N/A   Clear
12:35 AM 62.6 °F 35.6 °F 37% 30.03 in 10.0 mi Calm Calm - N/A   Clear
12:55 AM 64.4 °F 33.8 °F 32% 30.03 in 10.0 mi Calm Calm - N/A   Clear
1:15 AM 60.8 °F 37.4 °F 42% 30.03 in 10.0 mi Calm Calm - N/A   Mostly Cloudy
1:35 AM 59.0 °F 37.4 °F 45% 30.03 in 10.0 mi Calm Calm - N/A   Scattered Clouds
1:55 AM 62.6 °F 35.6 °F 37% 30.03 in 10.0 mi Calm Calm - N/A   Clear
2:15 AM 55.4 °F 41.0 °F 58% 30.03 in 10.0 mi Calm Calm - N/A   Clear
2:35 AM 53.6 °F 42.8 °F 67% 30.03 in 10.0 mi Calm Calm - N/A   Clear
2:55 AM 55.4 °F 44.6 °F 67% 30.03 in 10.0 mi Calm Calm - N/A   Clear
3:15 AM 55.4 °F 41.0 °F 58% 30.03 in 10.0 mi Calm Calm - N/A   Mostly Cloudy
3:35 AM 60.8 °F 39.2 °F 45% 30.03 in 10.0 mi Calm Calm - N/A   Scattered Clouds
3:55 AM 59.0 °F 39.2 °F 48% 30.03 in 10.0 mi Calm Calm - N/A   Clear
4:15 AM 59.0 °F 39.2 °F 48% 30.03 in 10.0 mi Calm Calm - N/A   Clear
4:35 AM 53.6 °F 41.0 °F 62% 30.03 in 10.0 mi ENE 6.9 mph - N/A   Clear
4:55 AM 53.6 °F 41.0 °F 62% 30.04 in 10.0 mi ENE 6.9 mph - N/A   Clear
5:15 AM 53.6 °F 39.2 °F 58% 30.03 in 10.0 mi ENE 6.9 mph - N/A   Clear
5:35 AM 55.4 °F 39.2 °F 54% 30.04 in 10.0 mi ENE 5.8 mph - N/A   Clear
5:55 AM 55.4 °F 37.4 °F 51% 30.04 in 10.0 mi East 3.5 mph - N/A   Clear
6:15 AM 55.4 °F 37.4 °F 51% 30.05 in 10.0 mi Calm Calm - N/A   Scattered Clouds
6:35 AM 59.0 °F 37.4 °F 45% 30.05 in 10.0 mi ESE 3.5 mph - N/A   Scattered Clouds
6:55 AM 59.0 °F 39.2 °F 48% 30.06 in 10.0 mi East 4.6 mph - N/A   Clear
7:15 AM 59.0 °F 44.6 °F 59% 30.06 in 10.0 mi Calm Calm - N/A   Clear
7:35 AM 59.0 °F 42.8 °F 55% 30.06 in 10.0 mi ESE 5.8 mph - N/A   Clear
7:55 AM 59.0 °F 42.8 °F 55% 30.06 in 10.0 mi SE 4.6 mph - N/A   Clear
8:15 AM 60.8 °F 41.0 °F 48% 30.07 in 10.0 mi ESE 4.6 mph - N/A   Clear
8:35 AM 62.6 °F 39.2 °F 42% 30.07 in 10.0 mi ESE 4.6 mph - N/A   Clear
8:55 AM 66.2 °F 39.2 °F 37% 30.07 in 10.0 mi East 4.6 mph - N/A   Clear
9:15 AM 68.0 °F 41.0 °F 37% 30.07 in 10.0 mi ENE 4.6 mph - N/A   Clear
9:35 AM 69.8 °F 39.2 °F 33% 30.07 in 10.0 mi Calm Calm - N/A   Clear
9:55 AM - - N/A% - - North - - N/A   Unknown
10:15 AM 71.6 °F 35.6 °F 27% 30.06 in 10.0 mi ENE 8.1 mph - N/A   Unknown
10:35 AM 71.6 °F 35.6 °F 27% 30.06 in 10.0 mi ENE 9.2 mph - N/A   Clear
10:55 AM 73.4 °F 32.0 °F 22% 30.06 in 10.0 mi NE 9.2 mph - N/A   Clear
11:15 AM 73.4 °F 26.6 °F 18% 30.06 in 10.0 mi NE 8.1 mph - N/A   Clear
11:35 AM 73.4 °F 32.0 °F 22% 30.06 in 10.0 mi ENE 9.2 mph - N/A   Clear
11:55 AM 73.4 °F 33.8 °F 23% 30.05 in 10.0 mi East 5.8 mph - N/A   Clear
12:15 PM 75.2 °F 32.0 °F 21% 30.05 in 10.0 mi ENE 9.2 mph - N/A   Clear
12:35 PM 75.2 °F 28.4 °F 18% 30.05 in 10.0 mi ESE 4.6 mph - N/A   Clear
12:55 PM 75.2 °F 28.4 °F 18% 30.04 in 10.0 mi ENE 6.9 mph - N/A   Clear
1:15 PM 75.2 °F 28.4 °F 18% 30.04 in 10.0 mi NW 3.5 mph - N/A   Clear
1:35 PM 77.0 °F 28.4 °F 17% 30.04 in 10.0 mi North 3.5 mph - N/A   Clear
1:55 PM 77.0 °F 32.0 °F 19% 30.03 in 10.0 mi ESE 4.6 mph - N/A   Clear
2:15 PM 77.0 °F 26.6 °F 16% 30.03 in 10.0 mi SE 4.6 mph - N/A   Clear
2:35 PM 77.0 °F 23.0 °F 13% 30.02 in 10.0 mi East 8.1 mph - N/A   Clear
2:55 PM 77.0 °F 26.6 °F 16% 30.02 in 10.0 mi NE 4.6 mph - N/A   Clear
3:15 PM 77.0 °F 23.0 °F 13% 30.01 in 10.0 mi Calm Calm - N/A   Clear
3:35 PM 77.0 °F 26.6 °F 16% 30.01 in 10.0 mi South 4.6 mph - N/A   Clear
3:55 PM 78.8 °F 26.6 °F 15% 30.01 in 10.0 mi South 3.5 mph - N/A   Clear
4:15 PM 77.0 °F 23.0 °F 13% 30.00 in 10.0 mi ENE 5.8 mph - N/A   Clear
4:35 PM 77.0 °F 24.8 °F 14% 30.00 in 10.0 mi Calm Calm - N/A   Clear
4:55 PM 78.8 °F 28.4 °F 16% 30.00 in 10.0 mi South 3.5 mph - N/A   Clear
5:15 PM 77.0 °F 26.6 °F 16% 30.00 in 10.0 mi Calm Calm - N/A   Clear
5:35 PM 77.0 °F 24.8 °F 14% 30.00 in 10.0 mi Calm Calm - N/A   Clear
5:55 PM 77.0 °F 30.2 °F 18% 30.00 in 10.0 mi Calm Calm - N/A   Clear
6:15 PM 77.0 °F 32.0 °F 19% 30.00 in 10.0 mi West 3.5 mph - N/A   Clear
6:35 PM 77.0 °F 32.0 °F 19% 29.99 in 10.0 mi SSW 3.5 mph - N/A   Clear
6:55 PM 75.2 °F 33.8 °F 22% 29.99 in 10.0 mi Calm Calm - N/A   Clear
7:15 PM 75.2 °F 32.0 °F 21% 29.99 in 10.0 mi Calm Calm - N/A   Clear
7:35 PM 73.4 °F 35.6 °F 25% 30.00 in 10.0 mi Calm Calm - N/A   Clear
7:55 PM 73.4 °F 33.8 °F 23% 30.00 in 10.0 mi WSW 3.5 mph - N/A   Clear
8:15 PM 73.4 °F 33.8 °F 23% 30.00 in 10.0 mi WSW 3.5 mph - N/A   Clear
8:35 PM 71.6 °F 33.8 °F 25% 30.00 in 10.0 mi SW 3.5 mph - N/A   Clear
8:55 PM 71.6 °F 35.6 °F 27% 30.00 in 10.0 mi Calm Calm - N/A   Clear
9:15 PM 71.6 °F 33.8 °F 25% 30.01 in 10.0 mi Calm Calm - N/A   Clear
9:35 PM 69.8 °F 33.8 °F 27% 30.01 in 10.0 mi Calm Calm - N/A   Clear
9:55 PM 69.8 °F 33.8 °F 27% 30.01 in 10.0 mi Calm Calm - N/A   Clear
10:15 PM 66.2 °F 35.6 °F 32% 30.02 in 10.0 mi ESE 5.8 mph - N/A   Clear
10:35 PM 68.0 °F 32.0 °F 26% 30.02 in 10.0 mi ESE 3.5 mph - N/A   Clear
10:55 PM 68.0 °F 32.0 °F 26% 30.01 in 10.0 mi ESE 3.5 mph - N/A   Clear
11:15 PM 66.2 °F 32.0 °F 28% 30.01 in 10.0 mi ESE 3.5 mph - N/A   Clear
11:35 PM 66.2 °F 32.0 °F 28% 30.01 in 10.0 mi SE 3.5 mph - N/A   Clear
11:55 PM 66.2 °F 32.0 °F 28% 30.01 in 10.0 mi SSE 4.6 mph - N/A   Clear